Tracking 31013 objects as of 10-Jul-2025
HD Live streaming from Space Station
objects crossing your sky now

MOLNIYA 3-41

Track MOLNIYA 3-41 now!
MOLNIYA 3-41 is classified as:


NORAD ID: 21706
Int'l Code: 1991-065A
Perigee: 464.7 km
Apogee: 39,249.7 km
Inclination: 63.5 °
Period: 704.6 minutes
Semi major axis: 26228 km
RCS: 14.2786 m2 (large)
Launch date: September 17, 1991
Source: Commonwealth of Independent States (former USSR) (CIS)
Launch site: PLESETSK MISSILE AND SPACE COMPLEX (PKMTR)
Your satellite tracking list
Your tracking list is empty




NASA's NSSDC Master Catalog

Two Line Element Set (TLE):
1 21706U 91065A   25188.59714621 -.00000654  00000-0  50046-3 0  9990
2 21706  63.4942  17.1358 7393762 251.1215  21.4526  2.04385391249678
Source of the keplerian elements: AFSPC